Precipitable_Water
0.37 0.37 0.36 0.36 0.36 0.36 0.36 0.37 0.34 0.27 0.25 0.27 0.27 0.32 0.38 0.41 0.37 0.35 0.34 0.34 0.35 0.35 0.37 0.38 0.40 0.43 0.46 0.51 0.61 0.59 0.48 0.45 0.52 0.67 0.72 0.71 0.71 0.72
0.37 0.36 0.35 0.35 0.34 0.35 0.37 0.39 0.38 0.33 0.26 0.30 0.29 0.30 0.31 0.31 0.33 0.33 0.33 0.34 0.33 0.34 0.35 0.35 0.37 0.38 0.41 0.44 0.46 0.53 0.60 0.55 0.45 0.46 0.52 0.61 0.59 0.57
0.36 0.36 0.35 0.35 0.34 0.35 0.37 0.37 0.36 0.35 0.30 0.31 0.34 0.33 0.31 0.31 0.32 0.33 0.33 0.33 0.31 0.29 0.29 0.29 0.31 0.34 0.37 0.37 0.39 0.42 0.45 0.54 0.59 0.54 0.48 0.50 0.55 0.57
0.36 0.35 0.34 0.33 0.33 0.34 0.35 0.34 0.34 0.36 0.35 0.31 0.34 0.34 0.33 0.33 0.32 0.33 0.33 0.33 0.30 0.29 0.29 0.29 0.27 0.28 0.29 0.30 0.33 0.36 0.38 0.40 0.44 0.52 0.58 0.55 0.53 0.53
0.34 0.33 0.32 0.31 0.31 0.32 0.31 0.30 0.30 0.31 0.32 0.30 0.28 0.32 0.33 0.34 0.33 0.33 0.34 0.34 0.32 0.32 0.31 0.30 0.29 0.27 0.27 0.29 0.30 0.33 0.34 0.35 0.36 0.39 0.42 0.49 0.53 0.53
0.34 0.34 0.33 0.32 0.30 0.27 0.25 0.23 0.22 0.22 0.22 0.22 0.22 0.22 0.25 0.27 0.28 0.27 0.27 0.32 0.34 0.34 0.33 0.31 0.30 0.30 0.29 0.30 0.30 0.29 0.29 0.31 0.33 0.34 0.36 0.38 0.40 0.45
0.31 0.30 0.27 0.24 0.23 0.22 0.22 0.22 0.24 0.23 0.22 0.22 0.22 0.23 0.23 0.26 0.25 0.28 0.27 0.28 0.29 0.31 0.30 0.31 0.30 0.29 0.29 0.29 0.27 0.27 0.31 0.32 0.32 0.34 0.34 0.35 0.37 0.39
0.20 0.20 0.21 0.22 0.21 0.22 0.23 0.24 0.25 0.24 0.22 0.24 0.24 0.24 0.27 0.30 0.31 0.30 0.29 0.27 0.24 0.31 0.27 0.27 0.31 0.30 0.29 0.31 0.29 0.29 0.30 0.31 0.32 0.33 0.34 0.34 0.35 0.37
0.20 0.20 0.20 0.21 0.23 0.23 0.24 0.25 0.26 0.27 0.28 0.28 0.26 0.26 0.27 0.28 0.29 0.31 0.31 0.30 0.29 0.29 0.27 0.25 0.30 0.26 0.31 0.31 0.29 0.30 0.31 0.32 0.35 0.34 0.33 0.32 0.32 0.35
0.21 0.21 0.22 0.22 0.25 0.26 0.27 0.27 0.28 0.29 0.31 0.31 0.31 0.30 0.30 0.30 0.30 0.30 0.30 0.32 0.31 0.32 0.35 0.27 0.30 0.29 0.28 0.27 0.27 0.29 0.30 0.34 0.34 0.32 0.32 0.32 0.33 0.35
0.22 0.23 0.25 0.26 0.28 0.31 0.31 0.30 0.30 0.30 0.33 0.33 0.34 0.35 0.35 0.35 0.34 0.33 0.29 0.29 0.27 0.30 0.34 0.28 0.25 0.23 0.24 0.25 0.27 0.29 0.31 0.33 0.35 0.35 0.34 0.34 0.35 0.36
0.23 0.24 0.26 0.28 0.30 0.32 0.32 0.32 0.30 0.31 0.32 0.32 0.36 0.37 0.37 0.38 0.39 0.38 0.35 0.30 0.29 0.25 0.27 0.24 0.24 0.25 0.20 0.24 0.28 0.30 0.34 0.33 0.31 0.32 0.38 0.36 0.36 0.35
0.23 0.23 0.25 0.28 0.31 0.34 0.35 0.32 0.32 0.34 0.33 0.33 0.33 0.34 0.34 0.35 0.37 0.39 0.39 0.33 0.27 0.25 0.29 0.28 0.25 0.26 0.25 0.23 0.28 0.31 0.32 0.32 0.33 0.33 0.34 0.34 0.36 0.37
0.24 0.26 0.28 0.31 0.34 0.35 0.33 0.32 0.33 0.32 0.30 0.29 0.29 0.29 0.29 0.29 0.31 0.34 0.34 0.33 0.33 0.30 0.31 0.31 0.27 0.27 0.25 0.24 0.25 0.31 0.33 0.34 0.34 0.33 0.34 0.35 0.36 0.40
0.27 0.30 0.33 0.33 0.33 0.32 0.31 0.31 0.32 0.31 0.26 0.26 0.26 0.27 0.29 0.31 0.33 0.31 0.31 0.31 0.31 0.30 0.30 0.30 0.29 0.30 0.31 0.29 0.29 0.31 0.31 0.33 0.35 0.35 0.36 0.36 0.36 0.38
0.30 0.33 0.31 0.30 0.30 0.29 0.28 0.28 0.29 0.29 0.26 0.25 0.25 0.27 0.27 0.28 0.28 0.28 0.27 0.27 0.26 0.26 0.31 0.35 0.37 0.36 0.32 0.33 0.33 0.31 0.33 0.31 0.35 0.37 0.37 0.37 0.38 0.40
0.29 0.28 0.27 0.27 0.25 0.26 0.26 0.27 0.27 0.28 0.27 0.27 0.26 0.26 0.25 0.26 0.26 0.28 0.28 0.29 0.28 0.28 0.29 0.33 0.37 0.38 0.37 0.35 0.31 0.32 0.33 0.33 0.35 0.36 0.36 0.34 0.35 0.38
0.27 0.26 0.26 0.25 0.25 0.25 0.25 0.26 0.27 0.27 0.26 0.26 0.27 0.27 0.27 0.28 0.28 0.29 0.30 0.29 0.28 0.29 0.30 0.32 0.34 0.33 0.34 0.35 0.38 0.33 0.33 0.32 0.34 0.36 0.35 0.32 0.32 0.37
0.26 0.26 0.25 0.25 0.26 0.26 0.27 0.26 0.26 0.27 0.29 0.28 0.28 0.28 0.28 0.28 0.28 0.28 0.29 0.29 0.29 0.30 0.31 0.33 0.33 0.31 0.27 0.25 0.34 0.40 0.33 0.33 0.33 0.32 0.33 0.32 0.30 0.32
0.27 0.26 0.26 0.26 0.27 0.27 0.28 0.28 0.28 0.29 0.29 0.29 0.29 0.29 0.30 0.29 0.29 0.29 0.29 0.29 0.29 0.30 0.31 0.33 0.34 0.32 0.29 0.28 0.29 0.33 0.38 0.34 0.32 0.30 0.30 0.32 0.33 0.34
0.27 0.27 0.28 0.28 0.29 0.29 0.29 0.30 0.30 0.30 0.30 0.30 0.30 0.30 0.31 0.30 0.30 0.30 0.30 0.31 0.31 0.31 0.30 0.32 0.34 0.37 0.36 0.35 0.30 0.30 0.34 0.36 0.35 0.32 0.31 0.30 0.29 0.29
0.28 0.28 0.29 0.29 0.30 0.30 0.31 0.31 0.31 0.31 0.31 0.31 0.31 0.32 0.32 0.32 0.31 0.31 0.31 0.31 0.31 0.32 0.32 0.33 0.35 0.35 0.33 0.30 0.28 0.29 0.30 0.33 0.35 0.36 0.36 0.35 0.30 0.26
0.29 0.29 0.30 0.30 0.31 0.31 0.32 0.32 0.31 0.31 0.32 0.32 0.32 0.32 0.32 0.31 0.32 0.32 0.32 0.32 0.32 0.31 0.31 0.30 0.31 0.31 0.30 0.29 0.27 0.27 0.28 0.29 0.30 0.31 0.32 0.37 0.37 0.37
Wind_Speed
36 38 40 42 43 45 46 47 47 46 46 43 41 39 38 37 37 37 36 35 34 34 32 32 32 31 32 32 35 35 36 38 40 41 40 39 39 40
39 41 43 45 46 47 48 48 47 47 47 44 43 41 40 39 38 38 36 35 34 32 31 30 30 30 30 31 32 32 35 36 38 39 41 42 42 42
42 44 46 47 48 49 49 49 48 47 48 47 45 43 42 41 40 39 38 36 35 33 32 31 30 30 30 30 30 31 32 33 35 38 38 40 40 41
45 46 48 49 50 50 50 50 48 48 48 48 46 45 45 43 42 42 40 40 38 36 34 33 32 31 31 31 31 31 31 32 33 33 38 39 40 41
47 48 50 51 51 51 50 50 50 50 49 50 50 48 47 46 45 44 43 42 41 39 37 36 34 34 33 33 32 32 32 32 33 34 34 35 39 41
49 50 51 52 52 52 52 52 52 51 51 51 51 50 49 48 47 46 45 43 41 40 40 38 38 36 35 34 34 34 35 35 35 34 35 35 36 38
51 51 52 52 53 53 52 51 50 50 50 50 51 50 49 48 47 46 45 44 43 41 41 40 38 37 36 36 36 36 36 36 37 37 37 37 38 38
51 52 52 53 52 50 50 49 49 50 50 49 48 48 47 46 44 43 43 43 42 41 40 39 38 38 39 38 38 38 38 39 40 39 40 40 40 41
52 52 51 50 49 48 49 49 49 48 47 47 47 47 47 46 45 43 42 41 40 40 41 40 39 41 38 39 39 39 40 39 40 40 41 41 42 43
50 50 49 49 48 48 48 48 47 45 44 43 43 43 41 38 37 37 38 37 38 37 37 38 37 37 38 39 40 39 39 39 40 41 41 41 42 43
49 48 48 48 47 46 46 46 45 42 41 40 39 38 36 34 32 31 31 31 32 31 31 34 35 37 37 37 37 38 37 36 36 36 38 39 39 40
48 48 47 46 46 45 44 44 43 41 39 37 35 32 30 29 28 26 26 25 25 28 28 30 31 31 31 33 32 31 32 34 36 37 36 36 37 38
48 47 46 45 45 44 42 41 39 38 36 33 30 28 27 24 21 19 20 25 26 26 27 28 28 28 29 30 31 32 33 33 33 33 34 35 35 36
47 46 44 45 44 42 40 39 37 35 31 30 28 26 24 23 24 24 25 25 26 27 27 26 25 26 27 27 26 27 28 28 29 30 30 31 32 32
45 44 44 42 41 40 39 36 32 29 29 27 26 24 23 22 22 23 24 24 24 24 24 23 23 22 22 22 22 22 23 23 24 25 25 26 27 28
42 42 41 40 37 35 33 30 27 25 25 24 23 22 21 20 19 19 20 19 18 18 16 15 16 17 17 18 19 20 20 19 19 20 21 22 23 25
41 39 36 34 33 31 29 27 24 22 21 20 19 18 18 17 16 15 14 13 13 12 12 11 11 12 14 15 15 16 17 17 18 18 18 18 20 21
36 33 32 31 29 28 27 23 21 20 19 19 18 17 16 15 14 12 11 10 10 9 9 10 10 10 10 10 11 11 10 11 12 13 14 15 16 17
30 30 29 27 26 25 23 20 18 17 17 16 15 14 13 12 11 10 9 9 8 9 9 9 9 8 7 7 7 8 8 9 9 10 11 13 15 16
27 27 24 24 22 21 20 18 17 15 14 13 12 12 11 10 10 10 9 9 8 8 8 8 6 6 6 6 7 7 9 9 10 11 12 13 13 14
25 23 22 21 19 18 17 16 15 14 13 13 13 12 10 10 10 9 9 9 9 8 7 6 6 6 6 6 6 7 7 9 9 10 10 10 10 10
22 20 19 18 17 15 15 14 14 13 13 12 12 11 10 10 10 10 9 9 9 8 7 7 7 7 7 7 7 8 9 8 8 7 7 8 7 7
19 18 17 15 14 14 13 13 12 12 13 13 14 13 13 12 12 12 12 11 10 10 9 9 9 8 8 8 9 9 9 8 7 7 6 6 7 8
Wind_Direction
303 304 304 304 305 305 305 305 304 304 303 302 300 297 295 293 292 292 291 290 288 286 284 281 277 273 270 266 261 259 256 252 250 248 247 246 244 244
303 304 304 305 305 305 304 304 303 301 300 299 297 295 292 290 290 290 289 288 287 286 284 281 278 274 271 268 265 262 258 255 252 250 248 248 247 245
304 304 304 305 305 305 304 303 301 299 297 296 294 292 290 289 287 286 285 284 283 283 282 280 278 275 272 269 267 264 261 258 255 252 250 249 247 246
305 305 305 305 305 305 304 302 300 298 296 295 293 291 288 287 286 284 282 280 279 279 279 278 277 274 272 271 267 266 263 260 258 256 252 250 248 247
306 306 306 306 306 305 304 302 300 297 295 293 292 290 288 286 284 282 279 277 276 275 275 275 273 272 272 270 269 266 264 262 260 258 255 253 250 248
307 306 306 306 305 304 303 301 300 297 295 293 292 290 287 285 282 280 278 275 273 273 272 272 272 271 270 269 268 267 265 262 261 258 256 255 253 251
308 308 307 306 305 304 303 302 300 298 297 295 293 290 288 285 282 279 276 273 272 271 271 270 269 268 268 269 269 269 266 263 261 259 258 257 255 253
310 309 308 308 306 306 304 303 301 300 298 296 294 292 289 286 283 279 276 272 270 270 270 268 268 267 269 267 269 268 267 265 262 260 259 258 256 254
310 310 310 309 308 307 306 305 304 302 300 298 296 294 291 287 282 278 275 273 271 270 270 268 268 268 267 267 268 268 267 265 262 261 261 259 257 254
312 311 310 310 309 308 308 307 306 305 303 301 299 298 295 290 283 278 275 272 271 270 270 267 268 267 268 270 269 267 266 264 264 263 261 260 257 255
313 312 311 311 310 310 309 308 308 307 306 305 302 299 295 292 286 281 276 274 273 271 269 270 271 271 270 269 269 267 265 263 263 264 261 259 257 256
314 313 312 312 311 311 310 310 308 308 308 308 305 302 300 293 288 282 277 276 276 277 275 272 272 273 271 272 268 264 261 262 267 263 260 259 258 256
314 314 313 312 312 311 311 311 309 310 308 309 308 305 302 297 291 287 276 282 282 279 280 277 274 273 271 271 269 268 266 265 264 262 260 259 258 255
315 314 313 313 312 312 311 310 310 309 308 308 307 306 304 298 290 285 284 283 283 282 282 278 275 274 273 272 270 268 266 265 263 261 260 259 256 254
315 315 315 315 314 313 312 311 310 310 311 309 306 306 305 303 297 292 289 287 285 283 282 278 275 273 270 270 271 270 269 266 265 261 260 257 255 253
317 317 316 317 317 317 316 314 312 312 316 314 310 308 308 307 304 301 297 294 290 289 286 280 277 274 273 272 272 271 269 266 265 262 261 258 256 253
318 319 319 321 321 322 321 318 314 312 316 319 321 320 317 315 312 310 306 303 298 296 294 291 286 281 280 280 278 275 270 266 265 264 260 258 255 251
320 321 323 324 325 326 326 325 322 319 317 318 319 319 319 319 318 317 315 310 307 304 302 302 299 295 290 286 279 281 278 274 269 262 257 258 256 255
322 324 325 327 329 331 333 332 330 329 327 327 327 326 327 328 329 330 328 323 318 311 309 310 304 302 301 299 298 286 290 283 274 268 264 263 265 264
324 326 328 331 333 336 338 339 339 340 341 344 346 346 343 340 337 335 333 331 327 323 320 317 314 314 310 313 311 305 299 291 284 279 275 273 270 269
326 328 331 334 336 339 343 346 348 349 349 347 346 347 347 346 346 344 341 336 334 334 332 337 334 328 323 321 320 319 318 310 297 286 281 279 274 271
326 328 331 334 338 341 345 348 351 354 355 356 354 352 349 345 341 338 336 333 332 334 331 327 325 323 321 320 322 323 323 323 317 305 289 279 277 274
328 331 333 336 340 344 348 352 353 354 352 349 345 341 336 331 328 324 322 321 318 317 316 313 312 312 310 310 313 315 319 321 321 317 310 300 290 282